#timestamp,LO_Frequency,Hit,StdDev 
1711242015.8,286047000.7,N
1711242035.6,286047002.4,N
1711242055.5,286047000.4,N
1711242075.3,286046999.8,N
1711242095.1,286046999.8,N
1711242115.9,286047002.2,N
1711242135.7,286047003.6,N
1711242155.5,286047002.5,N
1711242175.4,286047000.2,N
1711242195.2,286046999.8,N
1711242215.1,286047000.6,N
1711242216.0,286047000.6,N
1711242235.8,286047000.4,N
1711242255.6,286047001.1,N
1711242275.5,286047000.8,N
1711242295.3,286047000.5,N
1711242315.2,286047000.9,N
1711242335.9,286047000.4,N
1711242355.7,286047001.0,N
1711242375.6,286046998.1,N
1711242395.4,286046998.2,N
1711242415.2,286046998.5,N
1711242435.1,286047001.2,N
1711242436.0,286047001.2,N
1711242455.8,286047001.2,N
1711242475.7,286046998.3,N
1711242495.5,286046998.7,N
1711242515.3,286046999.3,N
1711242535.2,286046999.5,N
1711242555.0,286047001.2,N
1711242555.9,286047001.2,N
1711242575.7,286047000.3,N
1711242595.6,286047001.2,N
1711242615.4,286047000.9,N
1711242635.3,286046998.2,N
1711242655.1,286047000.6,N
1711242656.0,286047000.6,N
1711242675.8,286047000.9,N
1711242695.7,286047001.2,N
1711242715.5,286046998.2,N
1711242735.4,286047001.0,N
1711242755.2,286046998.1,N
1711242775.0,286047000.8,N
1711242775.9,286047000.8,N
1711242795.8,286047001.1,N
1711242815.6,286047000.7,N
1711242835.4,286047000.9,N
1711242855.3,286046999.9,N
1711242875.1,286047001.1,N
1711242895.9,286046998.2,N
1711242915.7,286047001.1,N
1711242935.5,286046999.7,N
1711242955.4,286047002.3,N
1711242975.2,286047002.1,N
1711242995.0,286047001.8,N
1711242996.0,286047001.8,N
1711243015.8,286047002.0,N
1711243035.6,286047001.7,N
1711243055.5,286047001.4,N
1711243075.3,286047004.4,Y
1711243095.2,286047001.8,P
1711243115.9,286046999.8,N
1711243135.7,286047000.1,N
1711243155.6,286047000.0,N
1711243175.4,286047000.0,N
1711243195.2,286047001.9,N
1711243215.1,286047002.7,Y
1711243216.0,286047002.7,P
1711243235.8,286047002.7,N
1711243255.7,286047001.8,N
1711243275.5,286047002.8,Y
1711243295.4,286046999.0,P
1711243315.2,286046996.9,N
1711243335.0,286046996.9,N
1711243335.9,286046996.9,N
1711243355.8,286047001.1,N
1711243375.6,286047000.8,N
1711243395.4,286046998.2,N
1711243415.3,286046998.4,N
1711243435.1,286047001.2,N
1711243455.9,286046998.9,N
1711243475.7,286046999.6,N
1711243495.5,286046996.5,N
1711243515.4,286046997.4,N
1711243535.2,286046996.8,N
1711243555.1,286046999.1,N
1711243556.0,286046999.1,N
1711243575.8,286046999.0,N
1711243595.6,286046998.8,N
1711243615.5,286046997.7,N
1711243635.3,286046997.0,N
1711243655.1,286046999.3,N
1711243675.9,286046999.3,N
1711243695.7,286046996.5,N
1711243715.6,286046999.6,N
1711243735.4,286046999.6,N
1711243755.2,286046997.8,N
1711243775.1,286046995.4,Y
1711243776.0,286046995.4,P
1711243795.8,286046999.2,N
1711243815.7,286046999.2,N
1711243835.5,286046999.5,N
1711243855.3,286046997.1,N
1711243875.2,286046997.1,N
1711243895.0,286046996.6,N
1711243895.9,286046996.6,N
1711243915.8,286046999.0,N
1711243935.6,286046998.5,N
1711243955.4,286046998.4,N
1711243975.3,286046999.3,N
1711243995.1,286046998.2,N
1711244015.8,286047000.5,N
1711244035.7,286047000.8,N
1711244055.5,286046998.3,N
1711244075.3,286046999.4,N
1711244095.2,286046999.1,N
1711244115.0,286046999.6,N
1711244115.9,286046999.6,N
1711244135.8,286046996.9,N
1711244155.6,286046996.8,N
1711244175.4,286046997.4,N
1711244195.3,286046996.5,N
1711244215.1,286046999.6,N
1711244235.9,286046996.8,N
1711244255.7,286046997.0,N
1711244275.5,286046999.0,N
1711244295.4,286046999.5,N
1711244315.2,286046998.8,N
1711244335.0,286047000.8,N
1711244336.0,286047000.8,N
1711244355.8,286047000.8,N
1711244375.6,286047000.3,N
1711244395.5,286046999.8,N
1711244415.3,286047001.0,N
1711244435.2,286047000.7,N
1711244455.9,286047002.4,N
1711244475.7,286047002.5,N
1711244495.6,286047002.8,N
1711244515.4,286047002.0,N
1711244535.2,286046999.9,N
1711244555.1,286046999.8,N
1711244556.0,286046999.8,N
1711244575.8,286047002.3,N
1711244595.7,286047000.0,N
1711244615.5,286047002.3,N
1711244635.3,286047002.3,N
1711244655.2,286047004.4,N
1711244675.0,286047002.7,N
1711244675.9,286047002.7,N
1711244695.8,286047001.6,N
1711244715.6,286046999.9,N
1711244735.4,286046999.8,N
1711244755.3,286046999.9,N
1711244775.1,286047002.8,N
1711244795.9,286046999.8,N
1711244815.7,286047000.3,N
1711244835.5,286047000.8,N
1711244855.4,286047001.0,N
1711244875.2,286047000.6,N
1711244895.1,286047000.6,N
1711244896.0,286047000.6,N
1711244915.8,286047000.5,N
1711244935.6,286047000.1,N
1711244955.5,286047000.2,N
1711244975.3,286047000.9,N
1711244995.1,286047000.5,N
1711245015.9,286047000.6,N
1711245035.7,286047001.0,N
1711245055.6,286047001.1,N
1711245075.4,286046998.1,N
1711245095.2,286046999.7,N
1711245115.1,286046999.7,N
1711245116.0,286046999.7,N
1711245135.8,286046999.9,N
1711245155.6,286047002.4,N
1711245175.5,286047000.5,N
1711245195.3,286046998.6,N
1711245215.2,286046998.6,N
1711245235.9,286046998.4,N
1711245255.7,286047000.4,N
1711245275.6,286047000.4,N
1711245295.4,286046999.7,N
1711245315.2,286046999.8,N
1711245335.1,286047000.3,N
1711245336.0,286047000.3,N
1711245355.8,286047001.1,N
1711245375.7,286047002.3,N
1711245395.5,286047001.0,N
1711245415.3,286046998.3,N
1711245435.2,286046999.3,N
1711245455.0,286046996.5,Y
1711245455.9,286046996.5,P
1711245475.8,286046999.6,N
1711245495.6,286046998.9,N
1711245515.4,286046999.3,N
1711245535.3,286046999.3,N
1711245555.1,286046999.1,N
1711245575.9,286046999.5,N
1711245595.7,286046997.6,N
